Weather History for Whiteville, NC

Change the Weather History Date:

Thursday, January 2, 2014

  Actual Average (KLBT) Record (KLBT)
Temperature  
Mean Temperature 48 °F 44 °F  
Max Temperature 52 °F 53 °F 72 °F (2005)
Min Temperature 44 °F 34 °F 24 °F (2001)
Degree Days  
Heating Degree Days 18 22  
Month to date heating degree days 43  
Since 1 July heating degree days 1093  
Cooling Degree Days 0 0  
Month to date cooling degree days 0  
Year to date cooling degree days 0  
Moisture  
Dew Point 47 °F    
Average Humidity 96    
Maximum Humidity 99    
Minimum Humidity 88    
Precipitation  
Precipitation 0.70 in 0.08 in 0.58 in (2014)
Month to date precipitation 0.17  
Year to date precipitation 0.17  
Sea Level Pressure  
Sea Level Pressure 29.85 in    
Wind  
Wind Speed 1 mph (WSW)    
Max Wind Speed 9 mph    
Max Gust Speed 22 mph    
Visibility 6 miles    
Events Rain    
T = Trace of Precipitation, MM = Missing Value Source: NWS Daily Summary

Daily Weather History Graph

Daily Weather History Graph

Search for Another Location

Airport:

Trip Planner

Search our weather history database for the weather conditions in past years. The results will help you decide how hot, cold, wet, or windy it might be!

Date:

Astronomy

Jan. 02, 2014 Rise Set
Actual Time 7:21 AM EST 5:16 PM EST
Civil Twilight 6:53 AM EST 5:44 PM EST
Nautical Twilight 6:22 AM EST 6:15 PM EST
Astronomical Twilight 5:51 AM EST 6:46 PM EST
Moon 8:05 AM EST (1/2) 7:05 PM EST (1/2)
Length of Visible Light 10h 51m
Length of Day
9h 55m
New Moon, 2% of the Moon is Illuminated
Jan 2
New Moon
Jan 7
First Quarter
Jan 15
Full
Jan 24
Last Quarter
Jan 30
New

Hourly Weather History & Observations

Time (EST) Temp. Dew Point Humidity Pressure Visibility Wind Dir Wind Speed Gust Speed Precip Events Conditions
12:15 AM 44.8 °F 42.8 °F 93% 30.15 in 10.0 mi Calm Calm - N/A   Light Drizzle
12:35 AM 45.0 °F 43.2 °F 93% 30.13 in 10.0 mi Calm Calm - N/A   Drizzle
12:55 AM 44.8 °F 43.3 °F 95% 30.12 in 10.0 mi Calm Calm - N/A   Light Drizzle
1:15 AM 45.0 °F 43.7 °F 95% 30.12 in 10.0 mi Calm Calm - N/A Rain Light Rain
1:35 AM 45.0 °F 43.7 °F 95% 30.11 in 10.0 mi Calm Calm - 0.01 in   Overcast
1:55 AM 45.0 °F 43.7 °F 95% 30.11 in 10.0 mi Calm Calm - 0.01 in   Overcast
2:15 AM 45.1 °F 43.9 °F 95% 30.11 in 10.0 mi Calm Calm - N/A   Drizzle
2:35 AM 45.5 °F 43.9 °F 94% 30.11 in 10.0 mi Calm Calm - N/A Rain Light Rain
2:55 AM 45.5 °F 44.2 °F 95% 30.11 in 5.0 mi Calm Calm - N/A Rain Light Rain
3:15 AM 45.5 °F 44.2 °F 95% 30.10 in 7.0 mi Calm Calm - 0.01 in Rain Rain
3:35 AM 45.1 °F 44.1 °F 96% 30.09 in 7.0 mi Calm Calm - 0.02 in Rain Light Rain
3:55 AM 45.1 °F 44.1 °F 96% 30.07 in 5.0 mi Calm Calm - 0.03 in Rain Light Rain
4:15 AM 45.1 °F 44.2 °F 97% 30.07 in 7.0 mi Calm Calm - N/A   Light Drizzle
4:35 AM 45.5 °F 44.4 °F 96% 30.05 in 7.0 mi Calm Calm - N/A   Overcast
4:55 AM 45.3 °F 44.2 °F 96% 30.04 in 5.0 mi Calm Calm - N/A   Drizzle
5:15 AM 45.1 °F 44.2 °F 97% 30.03 in 5.0 mi Calm Calm - N/A   Overcast
5:35 AM 45.1 °F 44.2 °F 97% 30.02 in 5.0 mi Calm Calm - 0.01 in Rain Light Rain
5:55 AM 45.5 °F 44.6 °F 97% 30.03 in 5.0 mi Calm Calm - 0.02 in Rain Light Rain
6:15 AM 45.5 °F 44.6 °F 97% 30.03 in 5.0 mi Calm Calm - 0.02 in Rain Light Rain
6:35 AM 45.5 °F 44.6 °F 97% 30.02 in 5.0 mi Calm Calm - 0.03 in Rain Light Rain
6:55 AM 45.5 °F 44.6 °F 97% 29.99 in 4.0 mi Calm Calm - 0.05 in Rain Rain
7:15 AM 45.5 °F 44.6 °F 97% 30.00 in 5.0 mi Calm Calm - 0.02 in Rain Light Rain
7:35 AM 45.7 °F 44.8 °F 97% 29.99 in 4.0 mi Calm Calm - 0.02 in Rain Rain
7:55 AM 45.7 °F 44.8 °F 97% 29.98 in 4.0 mi Calm Calm - 0.04 in Rain Light Rain
8:15 AM 46.0 °F 45.1 °F 97% 29.97 in 5.0 mi Calm Calm - N/A Rain Rain
8:35 AM 46.4 °F 45.5 °F 97% 29.97 in 5.0 mi Calm Calm - N/A Rain Rain
8:55 AM 46.4 °F 45.5 °F 97% 29.96 in 5.0 mi Calm Calm - 0.01 in Rain Light Rain
9:15 AM 46.8 °F 45.9 °F 97% 29.96 in 5.0 mi South 3.5 mph - 0.01 in Rain Light Rain
9:35 AM 46.8 °F 45.9 °F 97% 29.94 in 5.0 mi Calm Calm - 0.01 in Rain Light Rain
9:55 AM 47.3 °F 46.4 °F 97% 29.94 in 5.0 mi Calm Calm - 0.02 in   Light Drizzle
10:15 AM 47.8 °F 46.9 °F 97% 29.93 in 7.0 mi Calm Calm - N/A   Light Drizzle
10:35 AM 48.2 °F 47.3 °F 97% 29.92 in 5.0 mi Calm Calm - N/A Rain Light Rain
10:55 AM 48.6 °F 47.7 °F 97% 29.90 in 5.0 mi Calm Calm - N/A Rain Light Rain
11:15 AM 48.9 °F 47.8 °F 96% 29.90 in 7.0 mi Calm Calm - N/A Rain Light Rain
11:35 AM 49.3 °F 48.4 °F 97% 29.89 in 5.0 mi Calm Calm - N/A Rain Light Rain
11:55 AM 49.1 °F 48.2 °F 97% 29.87 in 4.0 mi Calm Calm - 0.01 in Rain Light Rain
12:15 PM 49.1 °F 48.0 °F 96% 29.85 in 5.0 mi Calm Calm - 0.01 in Rain Light Rain
12:35 PM 49.3 °F 48.4 °F 97% 29.83 in 5.0 mi Calm Calm - 0.02 in Rain Light Rain
12:55 PM 49.5 °F 48.4 °F 96% 29.82 in 4.0 mi Calm Calm - 0.04 in Rain Rain
1:15 PM 50.0 °F 48.7 °F 95% 29.81 in 4.0 mi Calm Calm - 0.03 in Rain Rain
1:35 PM 50.0 °F 49.1 °F 97% 29.79 in 4.0 mi Calm Calm - 0.06 in Rain Rain
1:55 PM 49.8 °F 48.7 °F 96% 29.78 in 3.0 mi Calm Calm - 0.09 in Rain Rain
2:15 PM 50.0 °F 49.1 °F 97% 29.75 in 5.0 mi Calm Calm - 0.03 in Rain Light Rain
2:35 PM 50.0 °F 49.1 °F 97% 29.75 in 10.0 mi Calm Calm - 0.04 in Rain Light Rain
2:55 PM 50.2 °F 49.3 °F 97% 29.74 in 2.5 mi Calm Calm - 0.08 in Rain Light Rain
3:15 PM 50.2 °F 49.3 °F 97% 29.73 in 3.0 mi Calm Calm - 0.03 in Rain Rain
3:35 PM 50.2 °F 49.3 °F 97% 29.73 in 5.0 mi Calm Calm - 0.05 in Rain Light Rain
3:55 PM 50.4 °F 49.5 °F 97% 29.72 in 2.5 mi Calm Calm - 0.07 in Rain Light Rain
4:15 PM 50.5 °F 49.8 °F 97% 29.70 in 1.0 mi Calm Calm - 0.01 in Rain Light Rain
4:35 PM 50.4 °F 49.6 °F 97% 29.69 in 1.2 mi Calm Calm - 0.01 in   Drizzle
4:55 PM 50.4 °F 49.6 °F 97% 29.68 in 1.5 mi Calm Calm - 0.02 in Rain Rain
5:15 PM 50.4 °F 49.6 °F 97% 29.67 in 1.2 mi Calm Calm - 0.02 in Rain Light Rain
5:35 PM 50.4 °F 49.6 °F 97% 29.66 in 2.0 mi Calm Calm - 0.03 in Rain Light Rain
5:55 PM 50.5 °F 50.0 °F 98% 29.64 in 2.5 mi Calm Calm - 0.04 in Rain Rain
6:15 PM 50.4 °F 49.6 °F 97% 29.63 in 1.8 mi Calm Calm - N/A   Drizzle
6:35 PM 50.5 °F 50.0 °F 98% 29.62 in 2.5 mi Calm Calm - 0.02 in Rain Heavy Rain
6:55 PM 50.5 °F 50.0 °F 98% 29.62 in 3.0 mi Calm Calm - 0.04 in   Heavy Drizzle
7:15 PM 50.4 °F 49.8 °F 98% 29.61 in 3.0 mi Calm Calm - 0.04 in Rain Rain
7:35 PM 50.4 °F 50.0 °F 99% 29.64 in 3.0 mi West 3.5 mph - 0.07 in Rain Rain
7:55 PM 50.7 °F 50.0 °F 97% 29.64 in 3.0 mi West 3.5 mph - 0.10 in Rain Heavy Rain
8:15 PM 50.9 °F 50.0 °F 97% 29.63 in 10.0 mi West 4.6 mph - N/A   Overcast
8:35 PM 50.9 °F 50.0 °F 97% 29.63 in 3.0 mi WSW 3.5 mph - 0.01 in   Heavy Drizzle
8:55 PM 50.9 °F 50.0 °F 97% 29.63 in 4.0 mi WSW 5.8 mph - 0.02 in   Heavy Drizzle
9:15 PM 51.1 °F 50.0 °F 96% 29.62 in 4.0 mi SW 4.6 mph - 0.01 in   Heavy Drizzle
9:35 PM 51.1 °F 50.0 °F 96% 29.62 in 10.0 mi WSW 4.6 mph - 0.01 in   Overcast
9:55 PM 51.4 °F 50.0 °F 95% 29.63 in 10.0 mi WSW 6.9 mph - 0.01 in   Overcast
10:15 PM 51.8 °F 50.0 °F 94% 29.63 in 10.0 mi WSW 6.9 mph - N/A   Overcast
10:35 PM 51.8 °F 49.5 °F 92% 29.63 in 10.0 mi WSW 6.9 mph - N/A   Overcast
10:55 PM 51.8 °F 49.1 °F 90% 29.63 in 10.0 mi West 6.9 mph - N/A   Overcast
11:15 PM 51.8 °F 49.1 °F 90% 29.64 in 10.0 mi West 9.2 mph 16.1 mph N/A   Light Drizzle
11:35 PM 50.9 °F 47.8 °F 89% 29.66 in 10.0 mi West 9.2 mph 21.9 mph N/A   Overcast
11:55 PM 50.2 °F 46.8 °F 88% 29.67 in 10.0 mi West 9.2 mph - N/A   Mostly Cloudy